Terminal Aerodrome Forecast
Issued by NWS

Home | Current Version | Previous Version | Text Only | Print | Product List | Glossary On
Versions: 1 2 3 4 5 6 7 8 9 10 11 12 13 14 15 16 17 18 19 20 21 22 23 24 25 26
000
FTAK31 PANC 051732
TAFAVD
TAF
PAVD 051732Z 0518/0618 VRB04KT P6SM BKN100
     FM052200 25008KT P6SM SCT080 SCT150
     FM060500 VRB03KT P6SM SCT100 SCT200
     FM061700 VRB03KT P6SM BKN060
      AMD LTD TO CLD VIS AND WIND=

USA.gov is the U.S. government's official web portal to all federal, state and local government web resources and services.